Weather History for West Yellowstone, MT

Change the Weather History Date:

Saturday, October 26, 2013

  Actual Average Record
Temperature  
Mean Temperature 36 °F -  
Max Temperature 57 °F 46 °F 57 °F (2013)
Min Temperature 15 °F 23 °F 1 °F (2012)
Degree Days  
Heating Degree Days 29    
Moisture  
Dew Point 31 °F    
Average Humidity 85    
Maximum Humidity 93    
Minimum Humidity 80    
Precipitation  
Precipitation 0.00 in - - ()
Sea Level Pressure  
Sea Level Pressure 30.34 in    
Wind  
Wind Speed 3 mph (SW)    
Max Wind Speed 16 mph    
Max Gust Speed 22 mph    
Visibility 10 miles    
Events      
Averages and records for this station are not official NWS values.
T = Trace of Precipitation, MM = Missing Value Source: NWS Daily Summary

Daily Weather History Graph

Daily Weather History Graph

Search for Another Location

Airport:

Trip Planner

Search our weather history database for the weather conditions in past years. The results will help you decide how hot, cold, wet, or windy it might be!

Date:

Astronomy

Oct. 26, 2013 Rise Set
Actual Time 7:54 AM MDT 6:21 PM MDT
Civil Twilight 7:24 AM MDT 6:51 PM MDT
Nautical Twilight 6:50 AM MDT 7:25 PM MDT
Astronomical Twilight 6:16 AM MDT 7:59 PM MDT
Moon No Moon Rise 2:14 PM MDT (10/26)
Length of Visible Light 11h 26m
Length of Day
10h 26m
Waning Gibbous, 52% of the Moon is Illuminated
Oct 26
Waning Gibbous
Oct 26
Last Quarter
Nov 3
New
Nov 9
First Quarter
Nov 17
Full

Hourly Weather History & Observations

Time (MDT) Temp. Windchill Dew Point Humidity Pressure Visibility Wind Dir Wind Speed Gust Speed Precip Events Conditions
12:10 AM 24.8 °F - 21.2 °F 86% 30.36 in 10.0 mi Calm Calm - N/A   Clear
12:30 AM 24.8 °F - 21.2 °F 86% 30.37 in 10.0 mi Calm Calm - N/A   Clear
12:50 AM 24.8 °F - 21.2 °F 86% 30.37 in 10.0 mi Calm Calm - N/A   Clear
1:10 AM 24.8 °F 17.9 °F 21.2 °F 86% 30.37 in 10.0 mi WSW 5.8 mph - N/A   Clear
1:30 AM 24.8 °F - 19.4 °F 80% 30.38 in 10.0 mi Calm Calm - N/A   Clear
1:50 AM 24.8 °F - 19.4 °F 80% 30.38 in 10.0 mi Calm Calm - N/A   Clear
2:10 AM 23.0 °F - 19.4 °F 86% 30.38 in 10.0 mi Calm Calm - N/A   Clear
2:30 AM 23.0 °F - 19.4 °F 86% 30.38 in 10.0 mi Calm Calm - N/A   Clear
2:50 AM 23.0 °F - 17.6 °F 80% 30.38 in 10.0 mi Calm Calm - N/A   Clear
3:10 AM 21.2 °F - 17.6 °F 86% 30.39 in 10.0 mi Calm Calm - N/A   Clear
3:30 AM 21.2 °F - 17.6 °F 86% 30.39 in 10.0 mi Calm Calm - N/A   Clear
3:50 AM 19.4 °F - 15.8 °F 86% 30.39 in 10.0 mi Calm Calm - N/A   Clear
4:10 AM 19.4 °F - 15.8 °F 86% 30.39 in 10.0 mi Calm Calm - N/A   Clear
4:30 AM 19.4 °F - 15.8 °F 86% 30.39 in 10.0 mi Calm Calm - N/A   Clear
4:50 AM 17.6 °F - 15.8 °F 93% 30.39 in 10.0 mi Calm Calm - N/A   Clear
5:10 AM 17.6 °F - 15.8 °F 93% 30.39 in 10.0 mi Calm Calm - N/A   Clear
5:30 AM 19.4 °F - 15.8 °F 86% 30.39 in 10.0 mi Calm Calm - N/A   Clear
5:50 AM 17.6 °F - 14.0 °F 86% 30.40 in 10.0 mi Calm Calm - N/A   Clear
6:10 AM 17.6 °F 12.3 °F 14.0 °F 86% 30.40 in 10.0 mi SW 3.5 mph - N/A   Clear
6:30 AM 17.6 °F - 14.0 °F 86% 30.40 in 10.0 mi Calm Calm - N/A   Clear
6:50 AM 17.6 °F - 14.0 °F 86% 30.40 in 10.0 mi Calm Calm - N/A   Clear
7:10 AM 17.6 °F - 14.0 °F 86% 30.40 in 10.0 mi Calm Calm - N/A   Clear
7:30 AM 15.8 °F - 14.0 °F 93% 30.40 in 10.0 mi Calm Calm - N/A   Clear
7:50 AM 15.8 °F 10.2 °F 12.2 °F 86% 30.40 in 10.0 mi SSW 3.5 mph - N/A   Clear
8:10 AM 15.8 °F 10.2 °F 14.0 °F 93% 30.41 in 10.0 mi SW 3.5 mph - N/A   Clear
8:30 AM 17.6 °F - 15.8 °F 93% 30.41 in 10.0 mi Calm Calm - N/A   Clear
8:50 AM 23.0 °F 18.4 °F 17.6 °F 80% 30.42 in 10.0 mi NE 3.5 mph - N/A   Clear
9:10 AM 24.8 °F - 19.4 °F 80% 30.42 in 10.0 mi Calm Calm - N/A   Clear
9:30 AM 26.6 °F - 23.0 °F 86% 30.42 in 10.0 mi Calm Calm - N/A   Clear
9:50 AM 28.4 °F - 24.8 °F 86% 30.42 in 10.0 mi Calm Calm - N/A   Clear
10:10 AM 32.0 °F - 26.6 °F 80% 30.41 in 10.0 mi Calm Calm - N/A   Clear
10:30 AM 32.0 °F - 28.4 °F 87% 30.41 in 10.0 mi Calm Calm - N/A   Clear
10:50 AM 35.6 °F - 32.0 °F 87% 30.41 in 10.0 mi Calm Calm - N/A   Clear
11:10 AM 37.4 °F - 32.0 °F 81% 30.41 in 10.0 mi Calm Calm - N/A   Clear
11:30 AM 39.2 °F - 33.8 °F 81% 30.40 in 10.0 mi Calm Calm - N/A   Clear
11:50 AM 41.0 °F 39.0 °F 35.6 °F 81% 30.40 in 10.0 mi SSE 3.5 mph - N/A   Clear
12:10 PM 42.8 °F - 39.2 °F 87% 30.39 in 10.0 mi Calm Calm - N/A   Clear
12:30 PM 46.4 °F - 41.0 °F 81% 30.38 in 10.0 mi Calm Calm - N/A   Clear
12:50 PM 50.0 °F - 44.6 °F 82% 30.37 in 10.0 mi Calm Calm - N/A   Clear
1:10 PM 51.8 °F - 46.4 °F 82% 30.36 in 10.0 mi Calm Calm - N/A   Clear
1:30 PM 53.6 °F - 48.2 °F 82% 30.35 in 10.0 mi West 3.5 mph - N/A   Clear
1:50 PM 55.4 °F - 50.0 °F 82% 30.34 in 10.0 mi SSW 12.7 mph 18.4 mph N/A   Clear
2:10 PM 57.2 °F - 51.8 °F 82% 30.33 in 10.0 mi SSW 15.0 mph 19.6 mph N/A   Clear
2:30 PM 57.2 °F - 51.8 °F 82% 30.32 in 10.0 mi SSW 13.8 mph 17.3 mph N/A   Clear
2:50 PM 57.2 °F - 51.8 °F 82% 30.31 in 10.0 mi SSW 12.7 mph 18.4 mph N/A   Clear
3:10 PM 57.2 °F - 53.6 °F 88% 30.30 in 10.0 mi South 15.0 mph 20.7 mph N/A   Clear
3:30 PM 57.2 °F - 53.6 °F 88% 30.29 in 10.0 mi SSW 12.7 mph 19.6 mph N/A   Clear
3:50 PM 57.2 °F - 53.6 °F 88% 30.29 in 10.0 mi SW 16.1 mph 20.7 mph N/A   Clear
4:10 PM 57.2 °F - 53.6 °F 88% 30.29 in 10.0 mi SW 16.1 mph 21.9 mph N/A   Clear
4:30 PM 57.2 °F - 51.8 °F 82% 30.29 in 10.0 mi SW 15.0 mph 20.7 mph N/A   Clear
4:50 PM 55.4 °F - 51.8 °F 88% 30.28 in 10.0 mi SSW 16.1 mph 21.9 mph N/A   Clear
5:10 PM 55.4 °F - 50.0 °F 82% 30.28 in 10.0 mi SW 12.7 mph 21.9 mph N/A   Clear
5:30 PM 53.6 °F - 50.0 °F 88% 30.27 in 10.0 mi SW 13.8 mph 20.7 mph N/A   Clear
5:50 PM 53.6 °F - 48.2 °F 82% 30.27 in 10.0 mi SW 8.1 mph 18.4 mph N/A   Clear
6:10 PM 50.0 °F - 46.4 °F 87% 30.27 in 10.0 mi SW 8.1 mph - N/A   Clear
6:30 PM 48.2 °F - 44.6 °F 87% 30.27 in 10.0 mi SSW 8.1 mph - N/A   Clear
6:50 PM 46.4 °F 42.4 °F 41.0 °F 81% 30.27 in 10.0 mi SSW 8.1 mph - N/A   Clear
7:10 PM 46.4 °F 42.4 °F 41.0 °F 81% 30.27 in 10.0 mi SSW 8.1 mph - N/A   Clear
7:30 PM 46.4 °F 41.1 °F 41.0 °F 81% 30.27 in 10.0 mi SW 11.5 mph - N/A   Clear
7:50 PM 44.6 °F 39.2 °F 39.2 °F 81% 30.26 in 10.0 mi SW 10.4 mph 16.1 mph N/A   Clear
8:10 PM 44.6 °F 40.7 °F 39.2 °F 81% 30.26 in 10.0 mi SW 6.9 mph - N/A   Clear
8:30 PM 42.8 °F 39.3 °F 39.2 °F 87% 30.26 in 10.0 mi SW 5.8 mph - N/A   Clear
8:50 PM 44.6 °F 39.7 °F 41.0 °F 87% 30.25 in 10.0 mi SSW 9.2 mph - N/A   Clear
9:10 PM 44.6 °F 39.7 °F 39.2 °F 81% 30.25 in 10.0 mi SSW 9.2 mph - N/A   Clear
9:30 PM 41.0 °F - 35.6 °F 81% 30.26 in 10.0 mi Calm Calm - N/A   Clear
9:50 PM 37.4 °F - 32.0 °F 81% 30.25 in 10.0 mi Calm Calm - N/A   Clear
10:10 PM 37.4 °F - 32.0 °F 81% 30.25 in 10.0 mi Calm Calm - N/A   Clear
10:30 PM 33.8 °F - 30.2 °F 87% 30.24 in 10.0 mi Calm Calm - N/A   Clear
10:50 PM 32.0 °F 28.7 °F 28.4 °F 87% 30.24 in 10.0 mi NNE 3.5 mph - N/A   Clear
11:10 PM 32.0 °F - 26.6 °F 80% 30.23 in 10.0 mi Calm Calm - N/A   Clear
11:30 PM 28.4 °F - 24.8 °F 86% 30.22 in 10.0 mi Calm Calm - N/A   Clear
11:50 PM 28.4 °F 24.6 °F 24.8 °F 86% 30.22 in 10.0 mi West 3.5 mph - N/A   Clear